STARLINK-30413, 57814

Orbit data source: Space-Track

STARLINK-30413, 57814 is a payload satellite owned by SpaceX/Seattle (US) in LEO that was launched on Sat, 09 Sep 2023 UTC via an FALCON 9 launch vehicle from the Air Force Eastern Test Range (AFETR). Payload-class satellites include a variety of spacecraft equipped with specific instruments for various scientific and technological missions. These include communications satellites like Starlink; space stations such as the ISS; scientific satellites like the Hubble; Earth observation satellites from companies like Planet Labs, Umbra, and HawkEye 360; GPS; miniature CubeSats for education and research; and military/defense satellites.

Loading next visibility...
Identifier
57814, 2023-138G
Orbit
LEO
Country
Flag of USUS
Related business
Manufacturer
SpaceX/Seattle
Mission
Operational Commercial Communications
Bus & Motor
STARLINK V2M, Unknown motor
Mass
730 kg wet, ~700 kg dry
Launch date (UTC)
2023-09-09 (3 years ago)
Launch vehicle
FALCON 9
Launch site
Air Force Eastern Test Range (AFETR)
Object type
Payload
Rocket body
Debris
Shape & HBR
Box + 2 Pan, 17.7 m
Radar Cross Section
33.884 m², Large (>1 m²)

Expand to show TLE details & history
Last TLE update: 3 days ago

TLE from 3 days ago
0 STARLINK-30413
1 57814U 23138G   26170.63328259 -.00000448  00000-0 -67579-5 0  9993
2 57814  43.0047  18.9432 0001099 266.3347  93.7379 15.27577547154325
Epoch: 2026-06-19T15:11Z
TLE epoch observation values (Epoch: 2026-06-19T15:11:55.615Z)
Latitude
-0.00004°
Longitude
-116.89802°
Altitude
482.882 km
Speed
7.626 km/s
True Right ascension
01h 15m 46s
True Declination
0° 00' 00"
Sunlit
Object was in daylight at epoch
Visualization orbit readout
Latitude
Unknown
Longitude
Unknown
Altitude
Unknown
Speed
Unknown
Apparent Right ascension
Unknown
Apparent Declination
Unknown
Sunlit
N/A
Visualization observer readout
Local Sidereal Time
21:33:32
Azimuth
Unknown
Elevation
Unknown
Doppler factor
Unknown
Orbital elements
Apogee altitude
485.755 km
Perigee altitude
484.247 km
Semi-major axis
6,863.138 km
Eccentricity
0.00011
Inclination
43.0047°
RAAN
18.9432°
Arg. of periapsis
266.3347°
True anomaly
93.75047°
Mean anomaly
93.7379°
Eccentric anomaly
93.74418°
Mean motion
3.81732 °/min
Orbital period
94.31 mins
BSTAR
-0.0000067579
Loading maneuver chart data...
Computing Atmospheric mass density...
Loading historical data...
Loading historical data...
Loading historical data...
Loading historical data...
Loading historical data...
Loading historical data...
Loading historical data...

Documentation

Showing up to 5 results
|